Simultaneous Nadir Overpasses (SNOs) Predictions

Prediction of SNOs between METOP-B and NOAA-19 Satellite Orbit:

Table of predicted SNOs for the next 14.0 days since TLE Epoch: 12/3/2022
Index Date (METOP-B) Time (METOP-B) Lat,Lon (METOP-B) SZA (METOP-B ) Date (NOAA-19) Time (NOAA-19) Lat,Lon (NOAA-19) SZA (NOAA-19 ) Distance(km) Time Diff (sec)
1 12/12/2022 09:34:02 -80.92,-108.49 74.34 12/12/2022 09:33:05 -80.91,-108.38 74.36 2.15 57
2 12/12/2022 10:24:43 80.91, 58.70 105.65 12/12/2022 10:24:02 80.92, 58.55 105.62 2.61 41
3 12/12/2022 11:15:24 -80.91,-133.97 74.36 12/12/2022 11:15:05 -80.91,-134.03 74.37 1.06 19
4 12/12/2022 12:06:05 80.91, 33.23 105.63 12/12/2022 12:06:01 80.91, 33.27 105.64 1.13 4
5 12/12/2022 12:56:46 -80.91,-159.44 74.37 12/12/2022 12:57:04 -80.91,-159.30 74.34 2.51 18
6 12/12/2022 13:47:26 80.92, 8.11 105.67 12/12/2022 13:48:00 80.91, 8.00 105.67 2.15 34
7 12/12/2022 14:38:07 -80.92, 175.44 74.33 12/12/2022 14:39:03 -80.91, 175.42 74.32 0.82 56



Historial Predications of SNOs between METOP-B and NOAA-19
